Prague, Czech Republic

2:07 AM CEST on March 30, 2017 (GMT +0200)
Prague-Ruzyne Airport

Weather History for LKPR - December, 2012

Change the Weather History Date:

Wednesday, December 12, 2012

  Actual Average Record
Temperature  
Mean Temperature 16 °F -  
Max Temperature 23 °F 34 °F 53 °F (2000)
Min Temperature 10 °F 24 °F 10 °F (2012)
Degree Days  
Heating Degree Days 48    
Moisture  
Dew Point 15 °F    
Average Humidity 85    
Maximum Humidity 93    
Minimum Humidity 76    
Precipitation  
Precipitation 0.00 in 0.03 in - ()
Sea Level Pressure  
Sea Level Pressure 30.11 in    
Wind  
Wind Speed 10 mph ()    
Max Wind Speed 13 mph    
Max Gust Speed -    
Visibility 5.6 miles    
Events Snow    
Averages and records for this station are not official NWS values.
T = Trace of Precipitation, MM = Missing Value Source: Averaged Metar Reports

Daily Weather History Graph

Daily Weather History Graph

Search for Another Location

Airport or City:

Trip Planner

Search our weather history database for the weather conditions in past years. The results will help you decide how hot, cold, wet, or windy it might be!

Date:

Astronomy

Dec. 12, 2012 Rise Set
Actual Time 7:52 AM CET 4:00 PM CET
Civil Twilight 7:14 AM CET 4:38 PM CET
Nautical Twilight 6:33 AM CET 5:20 PM CET
Astronomical Twilight 5:53 AM CET 5:59 PM CET
Moon 6:34 AM CET (12/12) 3:22 PM CET (12/12)
Length of Visible Light 9h 24m
Length of Day
8h 07m
Waning Crescent, 1% of the Moon is Illuminated
Dec 12
Waning Crescent
Dec 13
New
Dec 20
First Quarter
Dec 28
Full
Jan 5
Last Quarter

Hourly Weather History & Observations

Time (CET) Temp. Windchill Dew Point Humidity Pressure Visibility Wind Dir Wind Speed Gust Speed Precip Events Conditions
12:00 AM 19.4 °F 8.6 °F 15.8 °F 86% 30.09 in 6.2 mi WSW 9.2 mph - N/A   Partly Cloudy
12:30 AM 19.4 °F 9.5 °F 15.8 °F 86% 30.09 in 6.2 mi WSW 8.1 mph - N/A   Partly Cloudy
1:00 AM 20 °F - 16 °F 76% 30.22 in 16 mi WSW 8.9 mph - -   Partly Cloudy
1:00 AM 19.4 °F 9.5 °F 15.8 °F 86% 30.12 in - WSW 8.1 mph - N/A   Clear
1:30 AM 17.6 °F 6.4 °F 14.0 °F 86% 30.09 in - WSW 9.2 mph - N/A   Clear
2:00 AM 15.8 °F 2.7 °F 14.0 °F 93% 30.09 in - SW 11.5 mph - N/A   Clear
2:30 AM 15.8 °F 2.7 °F 14.0 °F 93% 30.12 in - WSW 11.5 mph - N/A   Clear
3:00 AM 15.8 °F 2.7 °F 14.0 °F 93% 30.12 in - SW 11.5 mph - N/A   Clear
3:30 AM 14.0 °F 0.5 °F 10.4 °F 86% 30.12 in - WSW 11.5 mph - N/A   Clear
4:00 AM 14.0 °F -0.2 °F 10.4 °F 86% 30.12 in - WSW 12.7 mph - N/A   Clear
4:30 AM 15.8 °F 2.1 °F 12.2 °F 86% 30.12 in - WSW 12.7 mph - N/A   Clear
5:00 AM 14.0 °F 0.5 °F 10.4 °F 86% 30.12 in - WSW 11.5 mph - N/A   Clear
5:30 AM 15.8 °F 3.4 °F 12.2 °F 86% 30.12 in - WSW 10.4 mph - N/A   Clear
6:00 AM 14.0 °F 1.2 °F 10.4 °F 86% 30.12 in - SW 10.4 mph - N/A   Clear
6:30 AM 12.2 °F -0.2 °F 8.6 °F 85% 30.12 in - SW 9.2 mph - N/A   Clear
7:00 AM 13 °F - 9 °F 78% 30.25 in 12 mi SW 11.2 mph - -   Scattered Clouds
7:00 AM 14.0 °F 0.5 °F 10.4 °F 86% 30.12 in - SSW 11.5 mph - N/A   Clear
7:30 AM 14.0 °F 2.0 °F 10.4 °F 86% 30.12 in - SW 9.2 mph - N/A   Clear
8:00 AM 12.2 °F -1.0 °F 8.6 °F 85% 30.12 in - SW 10.4 mph - N/A   Clear
8:30 AM 14.0 °F 1.2 °F 10.4 °F 86% 30.12 in - SSW 10.4 mph - N/A   Clear
9:00 AM 12.2 °F -1.8 °F 8.6 °F 85% 30.12 in - SW 11.5 mph - N/A   Clear
9:30 AM 15.8 °F 3.4 °F 10.4 °F 79% 30.12 in - SW 10.4 mph - N/A   Clear
10:00 AM 15.8 °F 2.7 °F 10.4 °F 79% 30.12 in - SW 11.5 mph - N/A   Clear
10:30 AM 17.6 °F 5.7 °F 12.2 °F 79% 30.12 in 6.2 mi SSW 10.4 mph - N/A   Mostly Cloudy
11:00 AM 19.4 °F 6.6 °F 14.0 °F 80% 30.12 in 6.2 mi SW 12.7 mph - N/A   Mostly Cloudy
11:16 AM 19.4 °F 7.2 °F 14.0 °F 80% 30.12 in 2.5 mi SW 11.5 mph - N/A Snow Light Snow
11:30 AM 19.4 °F 7.2 °F 15.8 °F 86% 30.12 in 1.9 mi SW 11.5 mph - N/A Snow Light Snow
12:00 PM 21.2 °F 9.5 °F 17.6 °F 86% 30.12 in 2.2 mi SSW 11.5 mph - N/A Snow Light Snow
12:15 PM 21.2 °F 8.9 °F 17.6 °F 86% 30.12 in 3.1 mi SW 12.7 mph - N/A Snow Light Snow
12:30 PM 21.2 °F 8.9 °F 17.6 °F 86% 30.12 in 1.9 mi SW 12.7 mph - N/A Snow Light Snow
12:39 PM 21.2 °F 9.5 °F 17.6 °F 86% 30.12 in 1.2 mi SW 11.5 mph - N/A Snow Light Snow
1:00 PM 22 °F - 18 °F 77% 30.22 in 2 mi SW 8.9 mph - - Snow Snow
1:00 PM 21.2 °F 10.1 °F 17.6 °F 86% 30.12 in 1.6 mi SSW 10.4 mph - N/A Snow Light Snow
1:30 PM 23.0 °F 11.7 °F 17.6 °F 80% 30.12 in 2.5 mi SW 11.5 mph - N/A Snow Light Snow
2:00 PM 23.0 °F 13.1 °F 17.6 °F 80% 30.09 in 5.6 mi SW 9.2 mph - N/A Snow Light Snow
2:30 PM 23.0 °F 12.4 °F 17.6 °F 80% 30.09 in 6.2 mi SW 10.4 mph - N/A Snow Light Snow
3:00 PM 19.4 °F 9.5 °F 15.8 °F 86% 30.09 in 6.2 mi SW 8.1 mph - N/A Snow Light Snow
3:23 PM 23.0 °F 11.7 °F 17.6 °F 80% 30.09 in 6.2 mi SW 11.5 mph - N/A   Mostly Cloudy
3:30 PM 23.0 °F 11.7 °F 17.6 °F 80% 30.09 in 6.2 mi SW 11.5 mph - N/A   Mostly Cloudy
4:00 PM 23.0 °F 11.7 °F 19.4 °F 86% 30.09 in 6.2 mi SW 11.5 mph - N/A   Mostly Cloudy
4:30 PM 19.4 °F 7.9 °F 15.8 °F 86% 30.09 in 6.2 mi SW 10.4 mph - N/A   Scattered Clouds
5:00 PM 17.6 °F 5.0 °F 14.0 °F 86% 30.09 in 6.2 mi SW 11.5 mph - N/A   Scattered Clouds
5:30 PM 21.2 °F 9.5 °F 17.6 °F 86% 30.09 in 6.2 mi SSW 11.5 mph - N/A   Partly Cloudy
6:00 PM 21.2 °F 10.9 °F 17.6 °F 86% 30.06 in 6.2 mi SSW 9.2 mph - N/A   Scattered Clouds
6:30 PM 23.0 °F 13.9 °F 19.4 °F 86% 30.06 in 6.2 mi SSW 8.1 mph - N/A   Scattered Clouds
7:00 PM 23 °F - 19 °F 79% 30.17 in 7 mi WSW 11.2 mph - - Snow Light Snow
7:00 PM 23.0 °F 12.4 °F 19.4 °F 86% 30.06 in 6.2 mi SW 10.4 mph - N/A Snow Light Snow
7:30 PM 23.0 °F 11.1 °F 19.4 °F 86% 30.06 in 6.2 mi SW 12.7 mph - N/A   Mostly Cloudy
8:00 PM 23.0 °F 11.7 °F 19.4 °F 86% 30.06 in 6.2 mi SW 11.5 mph - N/A   Mostly Cloudy
8:30 PM 19.4 °F 7.2 °F 15.8 °F 86% 30.06 in 6.2 mi SSW 11.5 mph - N/A   Mostly Cloudy
9:00 PM 17.6 °F 5.0 °F 15.8 °F 93% 30.06 in 5.6 mi SSW 11.5 mph - N/A   Partly Cloudy
9:30 PM 17.6 °F 5.0 °F 15.8 °F 93% 30.06 in 5.6 mi SSW 11.5 mph - N/A   Mostly Cloudy
10:00 PM 19.4 °F 7.9 °F 15.8 °F 86% 30.06 in 6.2 mi SW 10.4 mph - N/A Snow Light Snow
10:30 PM 23.0 °F 13.1 °F 19.4 °F 86% 30.06 in 6.2 mi SW 9.2 mph - N/A Snow Light Snow
11:00 PM 23.0 °F 12.4 °F 19.4 °F 86% 30.06 in 6.2 mi SW 10.4 mph - N/A   Mostly Cloudy
11:30 PM 23.0 °F 13.1 °F 19.4 °F 86% 30.06 in 6.2 mi SW 9.2 mph - N/A   Mostly Cloudy